Regional Weather Roundup
Issued by NWS Little Rock, AR

Home | Current Version | Previous Version | Text Only | Print | Product List | Glossary Off
Versions: 1 2 3 4 5 6 7 8 9 10 11 12 13 14 15 16 17 18 19 20 21 22 23 24 25 26 27 28 29 30 31 32 33 34 35 36 37 38 39 40 41 42 43 44 45 46 47 48 49 50

000
ASUS44 KLZK 220705
RWRLZK

WEATHER ROUNDUP FOR ARKANSAS
NATIONAL WEATHER SERVICE LITTLE ROCK AR
100 AM CST MON DEC 22 2014

NOTE: "FAIR" INDICATES FEW OR NO CLOUDS BELOW 12,000 FEET WITH NO
SIGNIFICANT WEATHER AND/OR OBSTRUCTIONS TO VISIBILITY.

ARZ001-003-010-029-220800-
NORTHWEST ARKANSAS

CITY           SKY/WX    TMP DP  RH WIND       PRES   REMARKS
FAYETTEVILLE   CLOUDY    44  42  93 SE7       29.74F
FORT SMITH     CLOUDY    45  43  93 NE6       29.77F FOG
HARRISON       CLOUDY    45  38  76 S13G20    29.78F
BENTONVILLE    CLOUDY    43  39  87 SE7       29.75F
ROGERS         CLOUDY    43  42  97 SE9       29.75F
SILOAM SPGS    CLOUDY    43  37  81 SE5       29.74F
HIGHFILL       CLOUDY    43  43 100 S7        29.73F FOG
$$

ARZ004-005-016-220800-
NORTH CENTRAL ARKANSAS

CITY           SKY/WX    TMP DP  RH WIND       PRES   REMARKS
BATESVILLE     CLOUDY    45  36  70 SE3       29.87F
FLIPPIN        CLOUDY    43  34  70 E5        29.80F
MTN HOME       CLOUDY    42  36  79 E7        29.80F
$$

ARZ040-041-220800-
WEST CENTRAL ARKANSAS

CITY           SKY/WX    TMP DP  RH WIND       PRES   REMARKS
MENA           CLOUDY    50  46  87 S6        29.77F
MOUNT IDA      CLOUDY    49  45  86 SE5       29.77F FOG
$$

ARZ009-017-025-026-028-220800-
NORTHEAST ARKANSAS

CITY           SKY/WX    TMP DP  RH WIND       PRES   REMARKS
CORNING        CLOUDY    43  39  87 SE8       29.89F
JONESBORO      CLOUDY    43  38  82 E5        29.88F
NEWPORT        CLOUDY    43  39  85 CALM      29.89F
WALNUT RIDGE   MOCLDY    45  36  70 SE8       29.86F
BLYTHEVILLE    CLOUDY    45  41  86 SE7       29.91F
$$

ARZ022-023-033-042-044-220800-
CENTRAL ARKANSAS

CITY           SKY/WX    TMP DP  RH WIND       PRES   REMARKS
LITTLE ROCK    PTCLDY    42  36  79 CALM      29.86S
N LITTLE ROCK    N/A     46  40  81 SE6       29.86S
JACKSONVILLE   CLOUDY    46  39  76 E3        29.86S
SEARCY         CLOUDY    47  37  68 CALM      29.89S
HOT SPRINGS    CLOUDY    50  43  77 SW9       29.84F
RUSSELLVILLE   CLOUDY    48  38  68 E7        29.80F
CLINTON        CLOUDY    46  41  81 E3        29.85F
$$

ARZ036-220800-
EAST ARKANSAS

CITY           SKY/WX    TMP DP  RH WIND       PRES   REMARKS
WEST MEMPHIS   CLOUDY    47  44  90 SE10      29.88F
$$

ARZ050-053-066-070-073-220800-
SOUTHWEST ARKANSAS

CITY           SKY/WX    TMP DP  RH WIND       PRES   REMARKS
ARKADELPHIA    CLOUDY    43  43 100 CALM      29.86F
CAMDEN         CLOUDY    46  41  81 CALM      29.88R
TEXARKANA      CLOUDY    48  46  93 SE7       29.80F
EL DORADO      CLOUDY    47  46  97 SW9       29.89R
DE QUEEN       CLOUDY    49  46  90 SE6       29.76F
$$

ARZ056-057-069-220800-
SOUTHEAST ARKANSAS

CITY           SKY/WX    TMP DP  RH WIND       PRES   REMARKS
PINE BLUFF     PTCLDY    46  42  86 S12       29.86S
STUTTGART      PTCLDY    46  41  81 SE12      29.86F
MONTICELLO     CLOUDY    46  43  89 SE5       29.86F

$$




USA.gov is the U.S. government's official web portal to all federal, state and local government web resources and services.